This is the latest recevied weather packets stored in our database for station/object N7CW. If no packets are shown the sender has not sent any weather packets the latest 10 day(s).
| Time | Temp. | Humidity | Pressure | Rain* | Wind** | Luminosity | Snow |
|---|---|---|---|---|---|---|---|
| 1777433617 | 11.67° C | 27% | 1019.1 hPa | 0 mm | - | 0 W/m² | - |
| 1777433317 | 11.11° C | 28% | 1019.2 hPa | 0 mm | - | 0 W/m² | - |
| 1777433014 | 11.11° C | 29% | 1019.2 hPa | 0 mm | - | 0 W/m² | - |
| 1777432709 | 11.67° C | 28% | 1019.2 hPa | 0 mm | - | 0 W/m² | - |
| 1777432405 | 11.11° C | 28% | 1019.3 hPa | 0 mm | - | 0 W/m² | - |
| 1777432100 | 11.67° C | 28% | 1019.3 hPa | 0 mm | - | 0 W/m² | - |
| 1777431795 | 11.11° C | 29% | 1019.1 hPa | 0 mm | - | 0 W/m² | - |
| 1777431491 | 12.22° C | 27% | 1019.1 hPa | 0 mm | - | 0 W/m² | - |
| 1777431188 | 12.78° C | 26% | 1019 hPa | 0 mm | - | 0 W/m² | - |
| 1777430883 | 12.78° C | 26% | 1018.7 hPa | 0 mm | - | 0 W/m² | - |
| 1777430580 | 12.78° C | 26% | 1018.8 hPa | 0 mm | - | 0 W/m² | - |
| 1777430276 | 13.33° C | 26% | 1018.8 hPa | 0 mm | - | 0 W/m² | - |
| 1777429976 | 13.33° C | 25% | 1018.7 hPa | 0 mm | - | 0 W/m² | - |
| 1777429673 | 13.89° C | 25% | 1018.6 hPa | 0 mm | - | 0 W/m² | - |
| 1777429369 | 13.89° C | 25% | 1018.7 hPa | 0 mm | - | 1 W/m² | - |
| 1777429064 | 14.44° C | 24% | 1018.5 hPa | 0 mm | - | 2 W/m² | - |
| 1777428761 | 14.44° C | 24% | 1018.6 hPa | 0 mm | - | 4 W/m² | - |
| 1777428457 | 14.44° C | 24% | 1018.6 hPa | 0 mm | - | 6 W/m² | - |
| 1777428153 | 15° C | 23% | 1018.5 hPa | 0 mm | - | 9 W/m² | - |
| 1777427849 | 15° C | 23% | 1018.2 hPa | 0 mm | - | 13 W/m² | - |
| 1777427546 | 15° C | 23% | 1018.5 hPa | 0 mm | - | 16 W/m² | - |
| 1777427242 | 15.56° C | 23% | 1018.5 hPa | 0 mm | - | 19 W/m² | - |
| 1777426940 | 15.56° C | 23% | 1018.5 hPa | 0 mm | - | 24 W/m² | - |
| 1777426636 | 16.11° C | 23% | 1018.4 hPa | 0 mm | - | 29 W/m² | - |
| 1777426333 | 16.11° C | 23% | 1018.4 hPa | 0 mm | - | 35 W/m² | - |
* Rain latest hour (hover to see other rain measurements)
** Current wind speed in m/s (hover to see current wind gust speed)